Globalstar M084

operational
NORAD ID: 38040 Int'l Des: 2011-080 Owner: GLOBL Country: US Constellation: globalstar
LEOCIRCULAR

Globalstar M084について

説明を読み込み中...

リアルタイム位置

3D地球を読み込み中...

次回通過

高度履歴

Altitude vs Time

uPlot chart will show altitude changes over time

軌道要素

1 38040U 11080A 25299.19252395 -.00000089 00000-0 82948-4 0 9991
2 38040 52.0038 9.6458 0000274 80.4991 306.1908 12.62264480639214
Epoch: Oct 26, 2025 • Age: 7 hours

現在のステータス

高度 1430.5 km
速度 7.15 km/s
衛星直下点 -48.65°S, 43.07°E
打ち上げ日 Dec 28, 2011
運用期間 13.8 years
タイプ communications

技術仕様

分類 Payload
質量 715.00 kg
乾燥質量 500.00 kg
総質量 715.00 kg
長さ 4.00 m
直径 2.00 m
スパン 12.00 m
形状 Trap Cyl + 2 Pan
製造者 THALR
バスタイプ Prisma
フェーズステータス In Orbit
所有者/国 GLOBL/US

大規模コンステレーション

Loading constellations...